Current weather by "City, St" or "zip code"  
 
Advertise Here

Current Conditions: Southland Field, LA

Overcast


76.0 F

Last Updated on Sep 16 2021, 9:35 pm CDT
Humidity: 100%
Wind Speed: NW 3.5 mph
Barometer 29.87 in
Dewpoint: 76.1 F
Visibility: 10.00 mi
Precip: --
Heat Index: NA
Wind Chill: NA
Current conditions at:

Southland Field, LA (KUXL)

Lat: 30.1314 Lon: 93.3761

Local Radar Image active severe weather and emergency alerts image image weather storm and storm spotter reports image weather observation monitoring service image
Local
Radar
Active
Alerts
Storm Reports Obs
Monitoring

Sign-up For Email & Text Message Weather Alert Notification Services



Advertise Here

Observation History for Southland Field, LA


Time Wind
(mph)
Vis
(mi)
Weather Precip (in) Temperature (F) Relative
Humidity
Wind
Chill
(F)
Heat
Index
(F)
Pressure
Air Dwpt altimeter
(in)
sea level
(mb)
Rmks
9:35 pm CDT NW 3.5 10.00 Overcast -- 76.0 76.1 100% NA NA 29.87 M
8:35 pm CDT N 0.0 3.00 Overcast -- 76.0 75.4 98% NA NA 29.86 M
7:35 pm CDT NW 5.8 10.00 Overcast -- 77.0 75.2 95% NA NA 29.85 M
6:35 pm CDT NW 6.9 10.00 Overcast -- 78.0 75.2 91% NA NA 29.83 M
5:35 pm CDT NW 10.4 10.00 Overcast -- 80.0 75.0 86% NA 85 29.82 M
4:55 pm CDT NW 8.1 10.00 Mostly Cloudy -- 80.0 74.7 83% NA 85 29.81 M
2:55 pm CDT N 6.9 10.00 Overcast -- 82.0 75.4 80% NA 89 29.82 M
2:35 pm CDT N 8.1 10.00 Overcast -- 81.0 74.8 82% NA 87 29.82 M
1:35 pm CDT N 5.8 10.00 Overcast -- 81.0 74.7 82% NA 87 29.84 M
11:35 am CDT N 6.9 10.00 Overcast -- 80.0 75.2 85% NA 85 29.86 M
10:35 am CDT N 0.0 10.00 Overcast -- 76.0 73.9 93% NA NA 29.86 M
9:35 am CDT N 3.5 10.00 Overcast -- 75.0 73.6 94% NA NA 29.85 M
8:35 am CDT NE 6.9 10.00 Overcast -- 75.0 73.6 94% NA NA 29.83 M
7:35 am CDT NE 4.6 10.00 Overcast -- 75.0 73.4 95% NA NA 29.81 M
6:35 am CDT NE 4.6 10.00 Overcast -- 75.0 72.9 94% NA NA 29.80 M
5:35 am CDT NE 5.8 10.00 Overcast -- 75.0 72.7 92% NA NA 29.79 M
4:35 am CDT N 6.9 10.00 NULL -- 75.0 72.5 91% NA NA 29.78 M
3:35 am CDT N 5.8 10.00 Overcast -- 75.0 72.1 90% NA NA 29.78 M
2:35 am CDT NE 9.2 10.00 Overcast -- 75.0 72.5 91% NA NA 29.78 M
1:35 am CDT N 6.9 10.00 Overcast -- 75.0 71.8 90% NA NA 29.79 M
12:55 am CDT NE 8.1 10.00 Overcast -- 75.0 71.8 91% NA NA 29.81 M
11:35 pm CDT N 12.7 10.00 Overcast -- 76.0 71.6 86% NA NA 29.81 M
10:35 pm CDT N 13.8 G 17.3 10.00 Overcast -- 76.0 72.0 87% NA NA 29.81 M

Regional Weather Observation


Southland Field, LA (KUXL)

Overcast
76.0 F

De Quincy Industrial Airpark, LA (K5R8)

Overcast
74.0 F

Lake Charles Regional Airport, LA (KLCH)

Overcast
76.0 F

Chenault Airpark, LA (KCWF)

Overcast
75.0 F

De Ridder, Beauregard Parish Airport, LA (KDRI)

NULL
85.0 F

Beaumont Municipal Airport, TX (KBMT)

Overcast
76.0 F
Advertise Here


Advertise Here